N1YZ Weather Reports


Display with metric or nautical units.
time (UTC)temp
F
wind
direction
speed
MPH
gust
MPH
rain 1hr
in
rain 24hr
in
rain mn
in
humidity
%
barometer
mb
20260504050416 52 344 0.0 0.0 0.00 0.00 0.00 89 1037.9
20260504045913 52 344 0.0 0.0 0.00 0.00 0.00 87 1037.8
20260504045408 52 344 0.0 0.0 0.00 0.00 0.00 86 1037.7
20260504044905 52 344 0.0 0.0 0.00 0.00 0.00 85 1037.9
20260504044403 52 344 0.0 0.0 0.00 0.00 0.00 84 1038.0
20260504043900 53 344 0.0 0.0 0.00 0.00 0.00 84 1037.9
20260504043356 53 344 0.0 0.0 0.00 0.00 0.00 83 1038.1
20260504042854 53 342 0.0 0.0 0.00 0.00 0.00 83 1038.0
20260504042350 53 343 0.0 0.0 0.00 0.00 0.00 82 1038.1
20260504041847 53 332 0.0 0.0 0.00 0.00 0.00 83 1038.1
20260504041343 53 358 0.0 0.0 0.00 0.00 0.00 83 1038.1
20260504040839 54 359 0.0 0.0 0.00 0.00 0.00 83 1038.2
20260504040337 54 359 0.0 0.0 0.00 0.00 0.00 82 1038.1
20260504035832 54 359 0.0 0.0 0.00 0.00 0.00 83 1038.0
20260504035331 54 359 0.0 0.0 0.00 0.00 0.00 82 1037.9
20260504034827 54 359 0.0 0.0 0.00 0.00 0.00 82 1038.2
20260504034325 54 359 0.0 0.0 0.00 0.00 0.00 82 1038.2
20260504033821 54 359 0.0 0.0 0.00 0.00 0.00 81 1038.3
20260504033320 55 359 0.0 0.0 0.00 0.00 0.00 81 1038.4
20260504032816 55 359 0.0 0.0 0.00 0.00 0.00 80 1038.4
20260504032313 55 359 0.0 0.0 0.00 0.00 0.00 80 1038.5
20260504031810 55 359 0.0 0.0 0.00 0.00 0.00 80 1038.5
20260504031307 55 359 0.0 0.0 0.00 0.00 0.00 79 1038.4
20260504030803 55 359 0.0 0.0 0.00 0.00 0.00 75 1038.4
20260504030301 56 359 0.0 0.0 0.00 0.00 0.00 75 1038.3
20260504025756 56 359 0.0 0.0 0.00 0.00 0.00 74 1038.4
20260504025254 56 359 0.0 0.0 0.00 0.00 0.00 75 1038.1
20260504024750 56 359 0.0 0.0 0.00 0.00 0.00 74 1038.1
20260504024247 56 359 0.0 0.0 0.00 0.00 0.00 71 1038.1
20260504023744 57 359 0.0 0.0 0.00 0.00 0.00 73 1038.2
20260504023240 57 359 0.0 0.0 0.00 0.00 0.00 71 1038.1
20260504022736 57 359 0.0 0.0 0.00 0.00 0.00 69 1038.0
20260504022233 57 359 0.0 0.0 0.00 0.00 0.00 69 1037.9
20260504021730 57 359 0.0 0.0 0.00 0.00 0.00 70 1037.8
20260504021227 58 359 0.0 0.0 0.00 0.00 0.00 70 1037.6
20260504020724 58 359 0.0 0.0 0.00 0.00 0.00 72 1037.7
20260504020220 58 359 0.0 0.0 0.00 0.00 0.00 68 1037.9
20260504015717 58 359 0.0 0.0 0.00 0.00 0.00 70 1037.7
20260504015213 59 359 0.0 0.0 0.00 0.00 0.00 68 1037.8
20260504014709 59 359 0.0 0.0 0.00 0.00 0.00 67 1037.6
20260504014206 59 359 0.0 0.0 0.00 0.00 0.00 66 1037.7
20260504013704 59 359 0.0 0.0 0.00 0.00 0.00 65 1037.8
20260504013201 59 359 0.0 0.0 0.00 0.00 0.00 65 1037.6
20260504012657 59 359 0.0 0.0 0.00 0.00 0.00 66 1037.5
20260504012155 60 359 0.0 0.0 0.00 0.00 0.00 68 1037.2
20260504011652 60 359 0.0 0.0 0.00 0.00 0.00 64 1037.5
20260504011148 61 359 0.0 0.0 0.00 0.00 0.00 61 1037.3
20260504010644 61 359 0.0 0.0 0.00 0.00 0.00 59 1037.2
20260504010140 61 359 0.0 0.0 0.00 0.00 0.00 60 1037.3
20260504005637 61 359 0.0 0.0 0.00 0.00 0.00 60 1037.2
20260504005134 62 359 0.0 0.0 0.00 0.00 0.00 60 1037.3
20260504004632 62 359 0.0 0.0 0.00 0.00 0.00 57 1037.1
20260504004129 62 359 0.0 0.0 0.00 0.00 0.00 59 1037.3
20260504003625 63 359 0.0 0.0 0.00 0.00 0.00 58 1037.2
20260504003122 63 359 0.0 0.0 0.00 0.00 0.00 57 1037.2
20260504002619 64 359 0.0 0.0 0.00 0.00 0.00 54 1037.1
20260504002116 64 359 0.0 0.0 0.00 0.00 0.00 54 1037.1
20260504001614 64 358 0.0 0.0 0.00 0.00 0.00 52 1037.1
20260504001109 65 354 0.0 0.0 0.00 0.00 0.00 51 1037.1
20260504000607 65 354 0.0 0.0 0.00 0.00 0.00 49 1037.2
20260504000105 65 344 0.0 0.0 0.00 0.00 0.00 49 1036.7
20260503235603 65 21 0.0 0.0 0.00 0.00 0.00 51 1037.2
20260503235059 65 44 0.0 0.0 0.00 0.00 0.00 52 1037.0
20260503234557 65 6 0.0 0.0 0.00 0.00 0.00 50 1036.9
20260503234055 65 6 0.0 0.0 0.00 0.00 0.00 50 1036.9
20260503233551 65 5 0.0 0.0 0.00 0.00 0.00 48 1037.0
20260503233047 65 5 0.0 0.0 0.00 0.00 0.00 50 1036.8
20260503232544 66 5 0.0 0.0 0.00 0.00 0.00 51 1036.8
20260503232042 66 5 0.0 0.0 0.00 0.00 0.00 50 1037.1
20260503231540 67 6 0.0 0.0 0.00 0.00 0.00 47 1036.8
20260503231036 67 7 0.0 0.0 0.00 0.00 0.00 46 1036.9
20260503230532 67 6 0.0 0.0 0.00 0.00 0.00 46 1037.1
20260503230030 67 55 0.0 0.0 0.00 0.00 0.00 45 1037.1
20260503225527 68 42 0.0 0.0 0.00 0.00 0.00 46 1037.1
20260503225021 68 44 0.0 0.0 0.00 0.00 0.00 46 1037.2
20260503224520 68 45 0.0 0.0 0.00 0.00 0.00 47 1037.3
20260503224017 68 55 0.0 0.0 0.00 0.00 0.00 46 1037.1
20260503223515 68 30 0.0 0.0 0.00 0.00 0.00 45 1037.0
20260503223010 69 31 0.0 0.0 0.00 0.00 0.00 46 1036.9
20260503222509 69 74 0.0 0.0 0.00 0.00 0.00 43 1037.1
20260503222006 70 344 0.0 0.0 0.00 0.00 0.00 43 1037.0
20260503221504 71 342 0.0 0.0 0.00 0.00 0.00 40 1037.2
20260503221001 71 39 0.0 0.0 0.00 0.00 0.00 40 1037.2
20260503220457 73 347 0.0 0.0 0.00 0.00 0.00 36 1037.3
20260503215949 75 21 0.0 0.0 0.00 0.00 0.00 35 1037.2
20260503215446 74 30 0.0 0.0 0.00 0.00 0.00 40 1037.4
20260503214943 71 71 0.0 1.0 0.00 0.00 0.00 40 1037.4
20260503214441 72 29 0.0 0.0 0.00 0.00 0.00 39 1037.6
20260503213937 71 49 0.0 0.0 0.00 0.00 0.00 42 1037.6
20260503213436 71 94 0.0 0.0 0.00 0.00 0.00 40 1037.5
20260503212932 72 187 1.0 2.0 0.00 0.00 0.00 39 1037.4
20260503212430 72 182 2.0 2.0 0.00 0.00 0.00 38 1037.4
20260503211927 72 38 0.0 0.0 0.00 0.00 0.00 44 1037.6
20260503211424 72 166 0.0 0.0 0.00 0.00 0.00 38 1037.8
20260503210919 71 139 0.0 0.0 0.00 0.00 0.00 39 1037.7
20260503210416 70 39 0.0 0.0 0.00 0.00 0.00 40 1037.9
20260503205911 71 137 1.0 1.0 0.00 0.00 0.00 40 1037.7
20260503205409 71 171 2.0 2.0 0.00 0.00 0.00 39 1038.0
20260503204904 71 43 0.0 0.0 0.00 0.00 0.00 40 1038.0
20260503204402 71 180 0.0 1.0 0.00 0.00 0.00 40 1037.8
20260503203859 71 28 0.0 0.0 0.00 0.00 0.00 44 1038.2
20260503203356 72 7 0.0 1.0 0.00 0.00 0.00 37 1038.1
20260503202853 73 52 0.0 0.0 0.00 0.00 0.00 39 1038.3
20260503202351 72 90 0.0 0.0 0.00 0.00 0.00 38 1038.5
20260503201849 71 38 0.0 0.0 0.00 0.00 0.00 39 1038.5
20260503201346 71 191 2.0 2.0 0.00 0.00 0.00 38 1038.5
20260503200844 71 177 2.0 2.0 0.00 0.00 0.00 41 1038.6
20260503200339 71 40 0.0 0.0 0.00 0.00 0.00 42 1038.8
20260503195837 72 33 0.0 0.0 0.00 0.00 0.00 41 1038.8
20260503195333 72 358 0.0 0.0 0.00 0.00 0.00 40 1038.8
20260503194830 72 47 0.0 0.0 0.00 0.00 0.00 44 1039.0
20260503194326 72 354 0.0 0.0 0.00 0.00 0.00 38 1039.1
20260503193823 72 33 0.0 0.0 0.00 0.00 0.00 37 1039.2
20260503193319 72 25 0.0 0.0 0.00 0.00 0.00 36 1039.3
20260503192815 72 12 0.0 1.0 0.00 0.00 0.00 39 1039.4
20260503192310 72 171 2.0 3.0 0.00 0.00 0.00 38 1039.2
20260503191807 71 178 2.0 2.0 0.00 0.00 0.00 37 1039.6
20260503191304 72 8 1.0 2.0 0.00 0.00 0.00 38 1039.5
20260503190801 72 135 0.0 0.0 0.00 0.00 0.00 37 1039.7
20260503190258 71 69 0.0 0.0 0.00 0.00 0.00 35 1039.9
20260503185754 72 193 1.0 2.0 0.00 0.00 0.00 35 1039.9
20260503185250 72 36 0.0 0.0 0.00 0.00 0.00 33 1039.9
20260503184745 72 20 0.0 0.0 0.00 0.00 0.00 38 1040.1
20260503184242 72 69 0.0 0.0 0.00 0.00 0.00 42 1040.0
20260503183737 72 40 0.0 0.0 0.00 0.00 0.00 39 1040.4
20260503183235 71 28 0.0 0.0 0.00 0.00 0.00 39 1040.4
20260503182733 71 21 0.0 1.0 0.00 0.00 0.00 35 1040.4
20260503182231 72 28 0.0 0.0 0.00 0.00 0.00 41 1040.4
20260503181722 70 348 1.0 1.0 0.00 0.00 0.00 39 1040.5
20260503181219 70 6 0.0 1.0 0.00 0.00 0.00 37 1040.7
20260503180715 71 183 2.0 3.0 0.00 0.00 0.00 39 1040.5
20260503180213 72 99 1.0 2.0 0.00 0.00 0.00 38 1040.5
20260503175710 71 100 1.0 2.0 0.00 0.00 0.00 37 1040.6
20260503175208 70 346 1.0 2.0 0.00 0.00 0.00 40 1040.6
20260503174703 70 63 1.0 1.0 0.00 0.00 0.00 41 1040.5
20260503174201 70 173 1.0 1.0 0.00 0.00 0.00 36 1040.9
20260503173656 70 332 0.0 0.0 0.00 0.00 0.00 37 1040.5
20260503173152 70 138 0.0 1.0 0.00 0.00 0.00 38 1040.9
20260503172649 70 161 2.0 2.0 0.00 0.00 0.00 39 1040.9
20260503172147 68 168 0.0 1.0 0.00 0.00 0.00 42 1041.0
20260503171643 69 6 0.0 0.0 0.00 0.00 0.00 41 1041.2
20260503171141 69 181 1.0 2.0 0.00 0.00 0.00 38 1040.9
20260503170637 69 154 0.0 2.0 0.00 0.00 0.00 36 1041.2
20260503170135 69 9 0.0 0.0 0.00 0.00 0.00 40 1041.3
20260503150526 64 221 0.0 0.0 0.00 0.00 0.00 52 1041.6
20260503131419 51 12 0.0 0.0 0.00 0.00 0.00 85 1041.3
20260503130915 51 40 0.0 0.0 0.00 0.00 0.00 85 1041.3
20260503130413 51 168 0.0 0.0 0.00 0.00 0.00 86 1041.4
20260503110812 44 357 0.0 0.0 0.00 0.00 0.00 95 1040.1
20260503110309 44 357 0.0 0.0 0.00 0.00 0.00 94 1040.0
20260503100235 46 356 0.0 0.0 0.00 0.00 0.00 91 1039.4
20260503090154 48 356 0.0 0.0 0.00 0.00 0.00 88 1039.2
20260503081624 49 355 0.0 0.0 0.00 0.00 0.00 81 1039.1
20260503081121 50 355 0.0 0.0 0.00 0.00 0.00 82 1038.9
20260503080617 50 355 0.0 0.0 0.00 0.00 0.00 81 1039.0
20260503080114 50 355 0.0 0.0 0.00 0.00 0.00 81 1039.0
20260503072551 50 354 0.0 0.0 0.00 0.00 0.00 81 1038.8
20260503072048 50 354 0.0 0.0 0.00 0.00 0.00 82 1038.6
20260503071544 50 354 0.0 0.0 0.00 0.00 0.00 83 1038.4
20260503071042 50 354 0.0 0.0 0.00 0.00 0.00 84 1038.7
20260503070538 50 354 0.0 0.0 0.00 0.00 0.00 84 1038.5
20260503054951 49 1 0.0 0.0 0.00 0.00 0.00 86 1038.2
20260503054447 50 1 0.0 0.0 0.00 0.00 0.00 85 1038.3
20260503053945 50 1 0.0 0.0 0.00 0.00 0.00 84 1038.2
20260503053443 50 1 0.0 0.0 0.00 0.00 0.00 82 1038.4
20260503052939 50 1 0.0 0.0 0.00 0.00 0.00 84 1038.2
20260503052437 50 1 0.0 0.0 0.00 0.00 0.00 84 1038.1
20260503051933 50 1 0.0 0.0 0.00 0.00 0.00 84 1037.9